Route Details
Walla Walla
Time Location Temp F Dew point F Wind Dir Wind Speed kts
10:29 PM 47.6200 -122.5131 43 39 154 2
10:28 PM 47.6200 -122.5131 43 40 115 3
10:27 PM 47.6200 -122.5131 43 39 148 3
10:26 PM 47.6200 -122.5131 43 40 125 1
10:25 PM 47.6200 -122.5131 43 39 231 2
10:24 PM 47.6200 -122.5131 43 39 199 4
10:23 PM 47.6200 -122.5131 43 40 158 2
10:22 PM 47.6200 -122.5131 43 40 102 2
10:21 PM 47.6200 -122.5131 43 40 217 2
10:20 PM 47.6200 -122.5131 43 40 198 6
10:19 PM 47.6200 -122.5131 43 40 155 4
10:18 PM 47.6199 -122.5131 43 39 153 3
10:17 PM 47.6199 -122.5131 43 39 153 3
10:16 PM 47.6200 -122.5131 43 40 142 1
10:15 PM 47.6200 -122.5131 43 39 84 0
10:14 PM 47.6200 -122.5131 43 39 123 1
10:13 PM 47.6200 -122.5131 43 39 144 0
10:12 PM 47.6200 -122.5131 43 39 270 0
10:11 PM 47.6200 -122.5131 43 39 81 0
10:10 PM 47.6200 -122.5131 43 39 168 1
10:09 PM 47.6199 -122.5131 43 39 176 1
10:08 PM 47.6200 -122.5131 43 39 156 2
10:07 PM 47.6199 -122.5131 43 39 177 2
10:06 PM 47.6200 -122.5131 43 39 94 0
10:05 PM 47.6200 -122.5131 43 39 129 2
10:04 PM 47.6199 -122.5131 43 39 146 4
10:03 PM 47.6200 -122.5131 43 39 193 3
10:02 PM 47.6200 -122.5131 43 39 144 0
10:01 PM 47.6199 -122.5131 43 39 101 1
10:00 PM 47.6200 -122.5131 43 39 270 1
9:59 PM 47.6200 -122.5131 43 39 205 4
9:58 PM 47.6200 -122.5131 43 39 154 3
9:57 PM 47.6200 -122.5131 43 39 143 1
9:56 PM 47.6200 -122.5131 43 40 61 1
9:55 PM 47.6200 -122.5131 43 40 116 3
9:54 PM 47.6200 -122.5131 43 40 201 0
9:53 PM 47.6200 -122.5131 43 40 280 2
9:52 PM 47.6200 -122.5131 43 40 140 2
9:51 PM 47.6199 -122.5132 43 40 142 0
9:50 PM 47.6199 -122.5131 43 40 131 1
9:49 PM 47.6199 -122.5132 43 40 150 0
9:48 PM 47.6200 -122.5131 43 40 169 0
9:47 PM 47.6199 -122.5131 43 40 47 2
9:46 PM 47.6199 -122.5131 43 40 76 1
9:45 PM 47.6200 -122.5131 43 40 120 3
9:44 PM 47.6199 -122.5131 43 40 143 1
9:43 PM 47.6199 -122.5131 43 40 106 1
9:42 PM 47.6200 -122.5131 43 40 170 2
9:41 PM 47.6200 -122.5131 43 40 140 2
9:40 PM 47.6199 -122.5131 43 40 162 1
9:39 PM 47.6199 -122.5131 43 40 155 1
9:38 PM 47.6200 -122.5131 43 40 202 2
9:37 PM 47.6200 -122.5131 43 40 275 2
9:36 PM 47.6200 -122.5131 43 40 155 1
9:35 PM 47.6200 -122.5131 43 40 184 0
9:34 PM 47.6200 -122.5131 43 40 181 1
9:33 PM 47.6200 -122.5131 43 40 238 1
9:32 PM 47.6200 -122.5131 43 40 210 0
9:31 PM 47.6199 -122.5131 43 40 270 0
9:30 PM 47.6199 -122.5131 43 40 244 2
9:29 PM 47.6200 -122.5131 43 39 214 2
9:28 PM 47.6200 -122.5131 43 39 270 0
9:27 PM 47.6200 -122.5131 43 40 99 0
9:26 PM 47.6200 -122.5131 43 39 270 0
9:25 PM 47.6200 -122.5131 43 39 109 0
9:24 PM 47.6200 -122.5131 43 39 194 1
9:23 PM 47.6200 -122.5131 43 39 135 3
9:22 PM 47.6200 -122.5131 43 39 150 2
9:21 PM 47.6200 -122.5131 43 39 142 2
9:20 PM 47.6200 -122.5131 43 39 162 3
9:19 PM 47.6200 -122.5131 43 39 161 2
9:18 PM 47.6200 -122.5131 43 39 133 3
9:17 PM 47.6200 -122.5131 43 39 166 1
9:16 PM 47.6200 -122.5131 43 39 181 3
9:15 PM 47.6200 -122.5131 43 39 200 3
9:14 PM 47.6200 -122.5131 43 39 195 5
9:13 PM 47.6200 -122.5131 43 39 169 3
9:12 PM 47.6200 -122.5131 43 39 155 5
9:11 PM 47.6200 -122.5131 43 39 190 5
9:10 PM 47.6200 -122.5131 43 39 155 4
9:09 PM 47.6200 -122.5131 43 39 173 5
9:08 PM 47.6200 -122.5131 43 39 164 6
9:07 PM 47.6200 -122.5131 43 39 197 5
9:06 PM 47.6200 -122.5131 43 39 214 4
9:05 PM 47.6200 -122.5131 43 39 195 3
9:04 PM 47.6200 -122.5131 43 39 186 2
9:03 PM 47.6200 -122.5131 43 39 214 1
9:02 PM 47.6200 -122.5131 43 39 178 4
9:01 PM 47.6200 -122.5131 43 39 195 5
9:00 PM 47.6200 -122.5131 43 39 213 6
8:59 PM 47.6200 -122.5131 43 39 227 6
8:58 PM 47.6200 -122.5131 43 39 175 1
8:57 PM 47.6200 -122.5131 43 39 165 5
8:56 PM 47.6200 -122.5131 43 39 193 4
8:55 PM 47.6200 -122.5131 43 39 193 3
8:54 PM 47.6200 -122.5131 43 39 218 4
8:53 PM 47.6200 -122.5131 43 39 227 5
8:52 PM 47.6200 -122.5131 42 39 211 6
8:51 PM 47.6200 -122.5131 42 39 176 4
8:50 PM 47.6200 -122.5131 42 39 223 8
8:49 PM 47.6200 -122.5131 42 39 197 8
8:48 PM 47.6200 -122.5131 42 39 208 8
8:47 PM 47.6200 -122.5131 42 39 211 5
8:46 PM 47.6200 -122.5131 42 39 194 5
8:45 PM 47.6199 -122.5131 42 39 195 5
8:44 PM 47.6200 -122.5131 42 39 194 5
8:43 PM 47.6200 -122.5131 42 39 194 6
8:42 PM 47.6200 -122.5131 42 39 184 4
8:41 PM 47.6200 -122.5131 42 39 213 2
8:40 PM 47.6200 -122.5131 42 39 223 4
8:39 PM 47.6200 -122.5131 42 39 207 5
8:38 PM 47.6200 -122.5131 42 39 203 3
8:37 PM 47.6200 -122.5131 42 39 196 4
8:36 PM 47.6200 -122.5131 42 39 219 3
8:35 PM 47.6200 -122.5131 42 39 207 5
8:34 PM 47.6200 -122.5131 42 39 216 2
8:33 PM 47.6200 -122.5131 42 39 209 3
8:32 PM 47.6200 -122.5131 42 39 191 2
8:31 PM 47.6200 -122.5131 42 39 181 2
8:30 PM 47.6200 -122.5131 42 39 187 3
8:29 PM 47.6200 -122.5131 42 39 186 2
8:28 PM 47.6200 -122.5131 42 39 184 1
8:27 PM 47.6200 -122.5131 42 39 158 3
8:26 PM 47.6200 -122.5131 42 39 184 1
8:25 PM 47.6200 -122.5131 42 39 216 2
8:24 PM 47.6200 -122.5131 42 39 200 3
8:23 PM 47.6200 -122.5131 42 39 156 2
8:22 PM 47.6200 -122.5131 42 39 151 1
8:21 PM 47.6200 -122.5131 42 39 188 3
8:20 PM 47.6200 -122.5131 42 39 180 5
8:19 PM 47.6200 -122.5131 42 39 173 4
8:18 PM 47.6200 -122.5131 42 39 190 4
8:17 PM 47.6200 -122.5131 42 39 191 6
8:16 PM 47.6200 -122.5131 42 39 198 7
8:15 PM 47.6200 -122.5131 42 39 180 4
8:14 PM 47.6200 -122.5131 42 39 204 5
8:13 PM 47.6200 -122.5131 42 39 193 5
8:12 PM 47.6200 -122.5131 42 39 173 3
8:11 PM 47.6200 -122.5131 42 39 212 4
8:10 PM 47.6199 -122.5131 42 39 190 4
8:09 PM 47.6199 -122.5131 42 39 236 3
8:08 PM 47.6199 -122.5131 42 39 231 0
8:07 PM 47.6200 -122.5131 42 39 217 2
8:06 PM 47.6200 -122.5131 42 39 200 1
8:05 PM 47.6200 -122.5131 42 39 207 1
8:04 PM 47.6200 -122.5131 42 39 62 1
8:03 PM 47.6200 -122.5131 42 39 201 1
8:02 PM 47.6200 -122.5131 42 39 148 3
8:01 PM 47.6200 -122.5131 42 39 180 2
8:00 PM 47.6200 -122.5131 42 39 239 4
7:59 PM 47.6200 -122.5131 42 39 175 4
7:58 PM 47.6200 -122.5131 42 39 187 4
7:57 PM 47.6200 -122.5131 42 39 58 4
7:56 PM 47.6200 -122.5131 42 39 162 4
7:55 PM 47.6200 -122.5131 42 39 165 2
7:54 PM 47.6200 -122.5131 42 39 193 2
7:53 PM 47.6200 -122.5131 42 39 188 4
7:52 PM 47.6199 -122.5131 42 39 172 4
7:51 PM 47.6200 -122.5131 42 39 175 4
7:50 PM 47.6200 -122.5131 42 39 168 4
7:49 PM 47.6199 -122.5131 42 39 134 4
7:48 PM 47.6199 -122.5131 42 39 169 7
7:47 PM 47.6200 -122.5131 42 39 169 3
7:46 PM 47.6200 -122.5131 42 39 82 4
7:45 PM 47.6200 -122.5131 42 39 123 3
7:44 PM 47.6200 -122.5131 42 39 66 3
7:43 PM 47.6200 -122.5131 42 39 161 6
7:42 PM 47.6200 -122.5131 42 39 138 4
7:41 PM 47.6200 -122.5131 42 39 140 4
7:40 PM 47.6200 -122.5131 42 39 186 2
7:39 PM 47.6200 -122.5131 42 39 182 2
7:38 PM 47.6200 -122.5131 42 39 150 3
7:37 PM 47.6200 -122.5131 42 39 147 6
7:36 PM 47.6200 -122.5131 42 39 173 6
7:35 PM 47.6200 -122.5131 42 39 168 6
7:34 PM 47.6200 -122.5131 42 39 140 5
7:33 PM 47.6200 -122.5131 42 39 162 7
7:32 PM 47.6200 -122.5131 42 39 169 6
7:31 PM 47.6200 -122.5131 42 39 179 5
7:30 PM 47.6200 -122.5131 42 39 165 7